Flag for Norway Weather past 2 weeks in Lillehammer, Norway

Now
56 °F

Refreshingly cool.


Feels Like: 56 °F
Forecast: 42 / 65 °F
Wind: 1 mph from West

Location: Lillehammer-Saetherengen

Current Time: Jul 31, 2015 at 12:24:36 PM

Latest Report: Jul 31, 2015 at 11:00 AM


Visibility: N/A

Pressure: 29.76 "Hg

Humidity: 58%

Dew point: 41 °F

Location of LillehammerLocation

Historic Weather in Lillehammer — Graph

°F

Lillehammer temperature yesterday

Maximum temperature yesterday: 68 °F (at 3:00 PM)
Minimum temperature yesterday: 54 °F (at 11:00 PM)
Average temperature yesterday: 60 °F

Past Weeks' High & Low Weather Summary

 TemperatureHumidityPressure
High72 °F (Jul 22, 4:00 PM)96% (Jul 27, 8:00 AM)30.08 "Hg (Jul 27, 8:00 AM)
Low43 °F (Jul 25, 4:00 AM)35% (Jul 19, 2:00 PM)29.35 "Hg (Jul 26, 10:00 PM)
Average56 °F74%29.62 "Hg
* Reported Jul 16 11:00 AM — Jul 31 11:00 AM, Lillehammer, Weather by CustomWeather, © 2015

Note: Actual official high and low records may vary slightly from our data, if they occured in-between our weather recording intervals... More about our weather records

Advertising

Lillehammer weather history for previous 24 hours

 ConditionsComfort  
Time TempWeatherWind HumidityBarometerVisibility
11:00 AM
Fri, Jul 31
56 °FRefreshingly cool.1 mph58%29.76 "HgN/A
10:00 AM53 °FCool.1 mph62%29.76 "HgN/A
9:00 AM52 °FCool.2 mph73%29.75 "HgN/A
8:00 AM50 °FCool.2 mph88%29.75 "HgN/A
7:00 AM50 °FCool.1 mph93%29.73 "HgN/A
6:00 AM49 °FCool.1 mph93%29.72 "HgN/A
4:00 AM51 °FCool.2 mph95%29.69 "HgN/A
3:00 AM51 °FCool.1 mph95%29.68 "HgN/A
2:00 AM51 °FCool.3 mph94%29.67 "HgN/A
1:00 AM52 °FCool.2 mph92%29.66 "HgN/A
12:00 AM53 °FCool.2 mph91%29.64 "HgN/A
11:00 PM
Thu, Jul 30
54 °FCool.2 mph91%29.62 "HgN/A
10:00 PM55 °FCool.2 mph89%29.60 "HgN/A
9:00 PM59 °FCool.1 mph79%29.57 "HgN/A
8:00 PM61 °FCool.1 mph72%29.55 "HgN/A
7:00 PM60 °FCool.1 mph75%29.54 "HgN/A
6:00 PM62 °FCool.3 mph61%29.54 "HgN/A
5:00 PM65 °FMild.1 mph48%29.50 "HgN/A
4:00 PM68 °FMild.2 mph41%29.47 "HgN/A
3:00 PM68 °FMild.5 mph39%29.47 "HgN/A
2:00 PM66 °FMild.2 mph49%29.47 "HgN/A
1:00 PM67 °FMild.3 mph48%29.47 "HgN/A
12:00 PM63 °FMild.1 mph54%29.50 "HgN/A
Weather by CustomWeather, © 2015

See weather overviewHow to use our weather pages